Miscellaneous Local Product
Issued by NWS Hastings, NE

Home | Current Version | Previous Version | Graphics & Text | Print | Product List | Glossary On
Versions: 1 2 3 4 5 6 7 8 9 10 11 12 13 14 15 16 17 18 19 20 21 22 23 24 25 26 27 28 29 30 31 32 33 34 35 36 37 38 39 40 41 42 43 44 45 46 47 48 49 50
944
AXUS43 KGID 030102
MISGRI

GID CWA HOURLY WEATHER ROUNDUP
NATIONAL WEATHER SERVICE HASTINGS NE
800 PM CDT MON MAY 02 2016

NOTE: "FAIR" INDICATES FEW OR NO CLOUDS BELOW 12,000 FEET WITH NO
SIGNIFICANT WEATHER AND/OR OBSTRUCTIONS TO VISIBILITY.

...SOUTH CENTRAL NEBRASKA...

CITY           SKY/WX    TMP DP  RH WIND       PRES   REMARKS
GRAND ISLAND   PTCLDY    57  38  48 SE3       30.05F
HASTINGS       PTCLDY    56  39  53 E3        30.05F
KEARNEY        MOCLDY    55  41  58 SE6       30.05S
ORD            MOCLDY    58  39  49 S6        30.02S
YORK           CLOUDY    57  37  47 CALM      30.05F
AURORA         MOCLDY    57  41  55 CALM      30.05S
LEXINGTON      PTCLDY    55  42  60 E7        30.04R
HOLDREGE       PTCLDY    55  43  63 SE5       30.04F
HEBRON         PTCLDY    57  42  58 CALM      30.06S

...NEBRASKA PANHANDLE...

CITY           SKY/WX    TMP DP  RH WIND       PRES   REMARKS
CHADRON        PTCLDY    59  36  42 NE15      30.01S
ALLIANCE       CLOUDY    54  37  52 E7        30.00F
SCOTTSBLUFF    CLOUDY    61  31  32 N13       30.01S
SIDNEY         CLOUDY    54  32  43 CALM      30.04F

...WESTERN AND NORTH CENTRAL NEBRASKA...

CITY           SKY/WX    TMP DP  RH WIND       PRES   REMARKS
VALENTINE      CLOUDY    54  40  59 NE10      30.01R
AINSWORTH      CLOUDY    55  41  59 NE6       30.01S
ONEILL         RAIN      53  43  70 N10       30.04R
BROKEN BOW     PTCLDY    57  42  57 E5        30.02F
IMPERIAL       MOCLDY    57  37  47 S6        30.04F
NORTH PLATTE   PTCLDY    58  30  34 E3        30.02F
MCCOOK         CLOUDY    58  36  43 W8        30.03F

...EASTERN NEBRASKA...

CITY           SKY/WX    TMP DP  RH WIND       PRES   REMARKS
NORFOLK        PTCLDY    57  42  57 S3        30.02F
SO SIOUX CITY  CLEAR     60  44  55 S5        30.03S
TEKAMAH        PTCLDY    60  45  57 S5        30.03F
COLUMBUS       CLOUDY    57  37  47 S7        30.05F
ALBION         PTCLDY    56  41  56 S3        30.03S
OMAHA EPPLEY   PTCLDY    61  38  42 CALM      30.04S
OFFUTT AFB     CLEAR     61  37  41 SW2       30.04S
MILLARD        CLOUDY    62  38  40 CALM      30.04S
LINCOLN        PTCLDY    61  36  39 W3        30.06S
NEBRASKA CITY  CLEAR     59  37  42 CALM      30.05S
BEATRICE       CLOUDY    60  38  43 CALM      30.05S
FALLS CITY     PTCLDY    59  41  51 CALM      30.05S

...NORTHERN KANSAS...

CITY           SKY/WX    TMP DP  RH WIND       PRES   REMARKS
GOODLAND       CLEAR     58  29  33 N7        30.06F
HILL CITY      CLEAR     64  34  32 CALM      30.05S
NORTON         CLEAR     57  36  44 E3        30.03
PHILLIPSBURG   CLEAR     57  43  58 CALM      30.05S
SMITH CENTER   CLEAR     54  43  66 E6        30.06S
BELOIT         CLEAR     57  39  51 CALM      30.05F
HAYS           PTCLDY    61  37  41 N3        30.05F
RUSSELL        CLEAR     59  40  49 NE6       30.04F
CONCORDIA      PTCLDY    59  36  42 CALM      30.06S
SALINA         CLEAR     62  35  36 CALM      30.07S
TOPEKA         CLEAR     56  45  66 CALM      30.07F



USA.gov is the U.S. government's official web portal to all federal, state and local government web resources and services.